Weather History for TAPA - August, 2013

Change the Weather History Date:

Wednesday, August 21, 2013

  Actual Average Record
Temperature  
Mean Temperature 84 °F -  
Max Temperature 88 °F 85 °F 89 °F (1997)
Min Temperature 80 °F 77 °F 73 °F (2002)
Cooling Degree Days 19    
Growing Degree Days 34 (Base 50)    
Moisture  
Dew Point 75 °F    
Average Humidity 74    
Maximum Humidity 79    
Minimum Humidity 62    
Precipitation  
Precipitation 0.02 in - - ()
Sea Level Pressure  
Sea Level Pressure 29.98 in    
Wind  
Wind Speed 11 mph ()    
Max Wind Speed 15 mph    
Max Gust Speed -    
Visibility 8.9 miles    
Events Rain , Thunderstorm    
Averages and records for this station are not official NWS values.
T = Trace of Precipitation, MM = Missing Value Source: Averaged Metar Reports

Daily Weather History Graph

Daily Weather History Graph

Search for Another Location

Airport or City:

Trip Planner

Search our weather history database for the weather conditions in past years. The results will help you decide how hot, cold, wet, or windy it might be!

Date:

Astronomy

Aug. 21, 2013 Rise Set
Actual Time 5:51 AM AST 6:28 PM AST
Civil Twilight 5:29 AM AST 6:50 PM AST
Nautical Twilight 5:03 AM AST 7:16 PM AST
Astronomical Twilight 4:36 AM AST 7:43 PM AST
Moon 6:53 PM AST (8/21) 6:13 AM AST (8/21)
Length of Visible Light 13h 21m
Length of Day
12h 36m
Full, 100% of the Moon is Illuminated
Aug 21
Full
Aug 28
Last Quarter
Sep 5
New
Sep 12
First Quarter
Sep 19
Full

Hourly Weather History & Observations

Time (AST) Temp. Heat Index Dew Point Humidity Pressure Visibility Wind Dir Wind Speed Gust Speed Precip Events Conditions
12:00 AM 82.4 °F 88.2 °F 73.4 °F 74% 30.01 in 6.2 mi East 10.4 mph - N/A   Scattered Clouds
1:00 AM 80.6 °F 85.4 °F 73.4 °F 79% 30.01 in 6.2 mi East 10.4 mph - N/A   Scattered Clouds
2:00 AM 82 °F - 74 °F 70% 29.99 in 17 mi ENE 11.5 mph - -   Widespread Dust
2:00 AM 82.4 °F 88.2 °F 73.4 °F 74% 29.98 in 6.2 mi ENE 11.5 mph - N/A   Scattered Clouds
3:00 AM 80.6 °F 85.4 °F 73.4 °F 79% 29.98 in 6.2 mi ENE 11.5 mph - N/A   Mostly Cloudy
4:00 AM 80.6 °F 85.4 °F 73.4 °F 79% 29.98 in 6.2 mi ENE 12.7 mph - N/A   Scattered Clouds
5:00 AM 81 °F - 74 °F 73% 29.99 in 17 mi ENE 12.7 mph - -   Widespread Dust
5:00 AM 80.6 °F 85.4 °F 73.4 °F 79% 29.98 in 6.2 mi ENE 12.7 mph - N/A   Mostly Cloudy
6:00 AM 82.4 °F 89.5 °F 75.2 °F 79% 29.98 in 6.2 mi ENE 11.5 mph - N/A Rain Light Rain Showers
7:00 AM 82.4 °F 89.5 °F 75.2 °F 79% 30.01 in 6.2 mi East 10.4 mph - N/A   Mostly Cloudy
8:00 AM 84 °F - 74 °F 64% 30.01 in 17 mi East 10.4 mph - -   Widespread Dust
8:00 AM 84.2 °F 90.9 °F 73.4 °F 70% 30.01 in 6.2 mi East 10.4 mph - N/A   Scattered Clouds
9:00 AM 84.2 °F 92.3 °F 75.2 °F 74% 30.01 in 6.2 mi East 10.4 mph - N/A   Mostly Cloudy
10:00 AM 84.2 °F 92.3 °F 75.2 °F 74% 30.01 in 6.2 mi ENE 12.7 mph - N/A   Mostly Cloudy
11:00 AM 86 °F - 75 °F 62% 30.02 in 17 mi ENE 15.0 mph - -   Widespread Dust
11:00 AM 86.0 °F 95.1 °F 75.2 °F 70% 30.01 in 6.2 mi ENE 15.0 mph - N/A   Mostly Cloudy
12:00 PM 87.8 °F 97.6 °F 75.2 °F 66% 30.01 in 6.2 mi East 13.8 mph - N/A   Mostly Cloudy
1:00 PM 86.0 °F 95.1 °F 75.2 °F 70% 29.98 in 6.2 mi East 12.7 mph - N/A   Mostly Cloudy
2:00 PM 86 °F - 75 °F 62% 29.96 in 17 mi East 15.0 mph - -   Widespread Dust
2:00 PM 86.0 °F 95.1 °F 75.2 °F 70% 29.95 in 6.2 mi East 15.0 mph - N/A   Mostly Cloudy
3:00 PM 86.0 °F 95.1 °F 75.2 °F 70% 29.95 in 6.2 mi East 15.0 mph - N/A   Mostly Cloudy
4:00 PM 84.2 °F 92.3 °F 75.2 °F 74% 29.95 in 6.2 mi ENE 13.8 mph - N/A   Mostly Cloudy
5:00 PM 84 °F - 75 °F 69% 29.95 in 17 mi ENE 12.7 mph - -   Widespread Dust
5:00 PM 84.2 °F 92.3 °F 75.2 °F 74% 29.95 in 6.2 mi ENE 12.7 mph - N/A   Mostly Cloudy
6:00 PM 82.4 °F 89.5 °F 75.2 °F 79% 29.95 in 6.2 mi ENE 12.7 mph - N/A   Mostly Cloudy
7:00 PM 82.4 °F 89.5 °F 75.2 °F 79% 29.95 in 6.2 mi ENE 12.7 mph - N/A Rain Light Rain Showers
8:00 PM 82 °F - 75 °F 73% 29.97 in 17 mi ENE 12.7 mph - -   Widespread Dust
8:00 PM 82.4 °F 89.5 °F 75.2 °F 79% 29.95 in 6.2 mi ENE 12.7 mph - N/A   Scattered Clouds
9:00 PM 82.4 °F 89.5 °F 75.2 °F 79% 29.98 in 6.2 mi ENE 11.5 mph - N/A   Scattered Clouds
10:00 PM 82.4 °F 89.5 °F 75.2 °F 79% 30.01 in 6.2 mi ENE 11.5 mph - N/A   Scattered Clouds
11:00 PM 82 °F - 75 °F 75% 30.00 in 17 mi ENE 12.7 mph - -   Widespread Dust
11:00 PM 82.4 °F 89.5 °F 75.2 °F 79% 29.98 in 6.2 mi ENE 12.7 mph - N/A Thunderstorm Thunderstorm